TITAN 3C TRANSTAGE DEB, 38704

Orbit data source: Space-Track

TITAN 3C TRANSTAGE DEB, 38704 is space debris in GEO originally from a launch on Thu, 26 Sep 1968 UTC launched from the Air Force Eastern Test Range (AFETR). Debris objects in space refer to the collection of defunct objects orbiting the Earth. Examples of debris include non-operational satellites, rocket bodies, and fragments generated from explosions, collisions, or faulty payload assembly.

Not visible in the next 10 days
Identifier
38704, 1968-081AE
Orbit
GEO
Country
Flag of USUS
Related business
Manufacturer
Unknown
Mission
Spacecraft
Bus & Motor
Unknown
Mass
Unknown
Launch date (UTC)
1968-09-26 (58 years ago)
Launch vehicle
Unknown
Launch site
Air Force Eastern Test Range (AFETR)
Object type
Payload
Rocket body
Debris
Shape & HBR
Unknown shape, 1.1 m
Radar Cross Section
Small (<0.1 m²)

Expand to show TLE details & history
Last TLE update: 1 day ago

TLE from 1 day ago
0 TITAN 3C TRANSTAGE DEB
1 38704U 68081AE  26111.36064102 -.00000340  00000-0  00000+0 0  9995
2 38704   3.9977  63.8655 0210569 224.3277 133.8995  1.02197396 75426
Epoch: 2026-04-21T08:39Z
TLE epoch observation values (Epoch: 2026-04-21T08:39:19.384Z)
Latitude
Longitude
84.52205°
Altitude
35,871.1 km
Speed
3.049 km/s
True Right ascension
04h 15m 09s
True Declination
0° 00' 00"
Sunlit
Object was in daylight at epoch
Visualization orbit readout
Latitude
Unknown
Longitude
Unknown
Altitude
Unknown
Speed
Unknown
Apparent Right ascension
Unknown
Apparent Declination
Unknown
Sunlit
N/A
Visualization observer readout
Local Sidereal Time
18:20:32
Azimuth
Unknown
Elevation
Unknown
Doppler factor
Unknown
Orbital elements
Apogee altitude
36,133.04 km
Perigee altitude
34,379.653 km
Semi-major axis
41,634.484 km
Eccentricity
0.02106
Inclination
3.9977°
RAAN
63.8655°
Arg. of periapsis
224.3277°
True anomaly
135.60673°
Mean anomaly
133.8995°
Eccentric anomaly
134.75623°
Mean motion
0.25548 °/min
Orbital period
1,409.09 mins
BSTAR
0
Loading maneuver chart data...
Computing Atmospheric mass density...

Documentation

Showing up to 5 results
|